COMPASS
1 32787U 08021E 14030.86252387 .00003778 00000-0 42999-3 0 8447
2 32787 097.7212 088.2881 0012973 274.3013 085.6721 14.86728600311774
AAUSAT2
1 32788U 08021F 14030.12003218 .00003573 00000-0 40131-3 0 8274
2 32788 097.7227 088.3989 0012475 275.9362 084.0433 14.87312778311715
DO-64
1 32789U 08021G 14030.83034795 .00007816 00000-0 79545-3 0 8654
2 32789 097.7392 094.3882 0011928 261.1904 163.3945 14.90963341312014
CO-66
1 32791U 08021J 14030.77226730 .00002375 00000-0 27991-3 0 8240
2 32791 097.7211 087.2281 0013437 277.0896 082.8791 14.85632128311646
RS-30
1 32953U 08025A 14030.75921713 .00000010 00000-0 00000 0 0 6065
2 32953 082.5026 286.6700 0019540 093.2753 267.0564 12.43042065258185
METEOR-M
1 35865U 09049A 14030.72727316 -.00000000 00000-0 19242-4 0 2145
2 35865 098.5710 082.1804 0002977 122.7172 237.4292 14.21906215226807
RS-38
1 35869U 09049E 14030.74120012 .00000036 00000-0 35432-4 0 1631
2 35869 098.5635 082.0413 0005671 129.7477 339.9605 14.22175577226830
JUGNU
1 37839U 11058B 14030.34329098 .00000473 00000-0 11076-3 0 5528
2 37839 019.9631 010.3306 0018874 265.8949 245.7066 14.12238068119045
SRMSAT
1 37841U 11058D 14030.28358030 .00000437 00000-0 95759-4 0 5512
2 37841 019.9735 027.2526 0011691 209.3065 271.2332 14.10292646118865
RAX-2
1 37853U 11061D 14030.86364291 .00008474 00000-0 60834-3 0 7100
2 37853 101.7113 355.3765 0226217 093.2616 343.8108 14.86438355122237
AUBIESAT
1 37854U 11061E 14029.88153221 .00008965 00000-0 62764-3 0 6940
2 37854 101.7149 355.3427 0225079 093.9450 325.1723 14.87421077122128
HRBE
1 37855U 11061F 14030.89074211 .00008861 00000-0 62541-3 0 7056
2 37855 101.7154 356.3819 0226591 091.9449 332.7478 14.86937368122256
RS-39
1 38051U 11062C 14030.75206630 .00035074 00000-0 79108-3 0 2073
2 38051 051.6305 185.4650 0007401 004.9455 126.4708 15.42873740112774
E-STAR
1 38079U 12006C 14031.00584495 .00069846 40429-5 11031-2 0 7263
2 38079 069.4646 344.8253 0496170 190.1103 168.9770 14.76472832102987
GOLIAT
1 38085U 12006J 14030.82525510 .00065053 39056-5 10543-2 0 7663
2 38085 069.4701 349.8018 0510883 192.6352 166.1587 14.72885003102835
HORYU-2
1 38340U 12025D 14030.86475166 .00002164 00000-0 35481-3 0 7466
2 38340 098.2422 345.9510 0011474 251.0328 108.9659 14.71744351 91591
RS-40
1 38735U 12041C 14030.67913415 .00000024 00000-0 10000-3 0 4735
2 38735 082.4763 013.2770 0016319 190.6143 169.4585 12.42556207 68503
PROITERES
1 38756U 12047B 14030.87124458 .00000778 00000-0 12449-3 0 5317
2 38756 098.2341 116.9205 0013565 098.8091 261.4563 14.74608051 74944
BEESAT-3
1 39134U 13015E 14030.89285052 .00005420 00000-0 41538-3 0 4885
2 39134 064.8763 212.3555 0014255 330.2527 029.7782 15.02744940 43017
BEESAT-2
1 39136U 13015G 14030.91349515 .00004833 00000-0 37472-3 0 4794
2 39136 064.8758 212.4402 0014478 330.0978 029.9333 15.02448305 43010
CAPE-2
1 39380U 13064A 14029.74173991 .00005260 00000-0 23684-3 0 769
2 39380 040.5161 198.9718 0002401 070.2899 289.8231 15.21559471 10775
TRLBLAZER
1 39382U 13064C 14030.75618714 .00036513 00000-0 13976-2 0 892
2 39382 040.5017 191.6103 0004035 345.2372 014.8493 15.25829431 10935
ZACUBE-1
1 39417U 13066B 14029.77257636 .00001694 00000-0 23811-3 0 2057
2 39417 097.7900 105.1131 0062319 333.2178 026.5832 14.77371261 10251
TRITON-1
1 39427U 13066M 14029.75361987 .00001127 00000-0 19914-3 0 587
2 39427 097.7813 103.7068 0119658 331.3829 028.0840 14.64765409 10128
DELFIN3XT
1 39428U 13066N 14029.46321242 .00001827 00000-0 32954-3 0 616
2 39428 097.7807 103.1598 0130374 332.4703 026.9635 14.62292570 10058
GOMX-1
1 39430U 13066Q 14030.43543687 .00001049 00000-0 21029-3 0 1783
2 39430 097.7765 103.4241 0157511 330.5148 028.7249 14.56221047 10163
$50SAT
1 39436U 13066W 14029.77307493 .00009918 00000-0 11520-2 0 705
2 39436 097.7924 105.8984 0029618 347.0387 013.0124 14.85246564 10296
PUCPSAT-1
1 39442U 13066AC 14030.83423806 .00002319 00000-0 27521-3 0 536
2 39442 097.7935 106.9841 0035319 338.6455 021.3300 14.85005600 9230
